Time,TemperatureF,DewpointF,PressureIn,WindDirection,WindDirectionDegrees,WindSpeedMPH,WindSpeedGustMPH,Humidity,HourlyPrecipIn,Conditions,Clouds,dailyrainin,SoftwareType,DateUTC
2013-05-29 00:02:00,58.5,51.3,29.93,SSE,152,6.9,6.9,77,0.00,RA,,0.00,WeatherDisplay:10.37,2013-05-29 07:02:00,
2013-05-29 00:07:00,58.5,51.3,29.93,SW,221,3.5,3.5,77,0.00,RA,,0.00,WeatherDisplay:10.37,2013-05-29 07:07:00,
2013-05-29 00:12:00,58.4,51.2,29.93,SSE,166,7.0,7.0,77,0.00,CLR,,0.00,WeatherDisplay:10.37,2013-05-29 07:12:00,
2013-05-29 00:17:00,58.5,51.3,29.93,WSW,244,1.1,1.1,77,0.00,CLR,,0.00,WeatherDisplay:10.37,2013-05-29 07:17:00,
2013-05-29 00:22:00,58.5,51.3,29.94,SE,142,3.5,3.5,77,0.00,CLR,,0.00,WeatherDisplay:10.37,2013-05-29 07:22:00,
2013-05-29 00:27:00,58.5,51.3,29.94,SSE,165,2.3,2.3,77,0.00,CLR,,0.00,WeatherDisplay:10.37,2013-05-29 07:27:00,
2013-05-29 00:32:00,58.4,51.2,29.93,SSW,208,3.5,3.5,77,0.00,CLR,,0.00,WeatherDisplay:10.37,2013-05-29 07:32:00,
2013-05-29 00:37:00,58.4,51.2,29.93,South,187,4.0,4.0,77,0.00,CLR,,0.00,WeatherDisplay:10.37,2013-05-29 07:37:00,
2013-05-29 00:42:00,58.3,51.1,29.94,South,170,3.5,3.5,77,0.00,CLR,,0.00,WeatherDisplay:10.37,2013-05-29 07:42:00,
2013-05-29 00:47:00,58.3,51.1,29.93,SSE,158,3.5,3.5,77,0.00,CLR,,0.00,WeatherDisplay:10.37,2013-05-29 07:47:00,
2013-05-29 00:52:00,58.2,51.0,29.93,SSW,207,2.3,2.3,77,0.00,CLR,,0.00,WeatherDisplay:10.37,2013-05-29 07:52:00,
2013-05-29 00:57:00,58.2,51.0,29.92,South,183,3.0,3.0,77,0.00,CLR,,0.00,WeatherDisplay:10.37,2013-05-29 07:57:00,
2013-05-29 01:02:00,58.0,50.8,29.93,SSW,194,3.5,3.5,77,0.00,CLR,,0.00,WeatherDisplay:10.37,2013-05-29 08:02:00,
2013-05-29 01:07:00,57.8,51.0,29.93,SSE,165,3.5,3.5,78,0.00,CLR,,0.00,WeatherDisplay:10.37,2013-05-29 08:07:00,
2013-05-29 01:12:00,57.8,51.0,29.93,South,189,1.1,1.1,78,0.00,CLR,,0.00,WeatherDisplay:10.37,2013-05-29 08:12:00,
2013-05-29 01:17:00,57.8,51.0,29.93,SSE,150,3.5,3.5,78,0.00,CLR,,0.00,WeatherDisplay:10.37,2013-05-29 08:17:00,
2013-05-29 01:22:00,57.7,50.9,29.93,SE,146,1.1,1.1,78,0.00,CLR,,0.00,WeatherDisplay:10.37,2013-05-29 08:22:00,
2013-05-29 01:27:00,57.6,50.8,29.92,SSE,162,2.3,2.3,78,0.00,CLR,,0.00,WeatherDisplay:10.37,2013-05-29 08:27:00,
2013-05-29 01:32:00,57.6,50.8,29.92,SSW,207,4.6,4.6,78,0.00,CLR,,0.00,WeatherDisplay:10.37,2013-05-29 08:32:00,
2013-05-29 01:37:00,57.5,50.7,29.92,SSE,155,4.6,4.6,78,0.00,CLR,,0.00,WeatherDisplay:10.37,2013-05-29 08:37:00,
2013-05-29 01:42:00,57.4,50.6,29.92,SSE,148,2.3,2.3,78,0.00,CLR,,0.00,WeatherDisplay:10.37,2013-05-29 08:42:00,
2013-05-29 01:47:00,57.4,50.6,29.92,SSE,158,3.5,3.5,78,0.00,CLR,,0.00,WeatherDisplay:10.37,2013-05-29 08:47:00,
2013-05-29 01:52:00,57.4,50.9,29.92,SSW,212,2.3,2.3,79,0.00,CLR,,0.00,WeatherDisplay:10.37,2013-05-29 08:52:00,
2013-05-29 01:57:00,57.4,50.9,29.92,South,176,3.5,3.5,79,0.00,CLR,,0.00,WeatherDisplay:10.37,2013-05-29 08:57:00,
2013-05-29 02:02:00,57.3,50.8,29.92,South,169,3.5,3.5,79,0.00,CLR,,0.00,WeatherDisplay:10.37,2013-05-29 09:02:00,
2013-05-29 02:07:00,57.2,50.7,29.92,SSE,160,3.5,3.5,79,0.00,CLR,,0.00,WeatherDisplay:10.37,2013-05-29 09:07:00,
2013-05-29 02:12:00,57.2,50.7,29.92,South,173,2.3,2.3,79,0.00,CLR,,0.00,WeatherDisplay:10.37,2013-05-29 09:12:00,
2013-05-29 02:17:00,57.1,51.0,29.91,South,190,3.5,3.5,80,0.00,CLR,,0.00,WeatherDisplay:10.37,2013-05-29 09:17:00,
2013-05-29 02:22:00,57.1,51.0,29.91,SSW,194,3.5,3.5,80,0.00,CLR,,0.00,WeatherDisplay:10.37,2013-05-29 09:22:00,
2013-05-29 02:27:00,57.1,51.0,29.91,SSE,167,3.5,3.5,80,0.00,CLR,,0.00,WeatherDisplay:10.37,2013-05-29 09:27:00,
2013-05-29 02:32:00,57.1,51.0,29.91,SSE,152,3.5,3.5,80,0.00,CLR,,0.00,WeatherDisplay:10.37,2013-05-29 09:32:00,
2013-05-29 02:37:00,57.1,51.0,29.92,South,181,3.0,3.0,80,0.00,CLR,,0.00,WeatherDisplay:10.37,2013-05-29 09:37:00,
2013-05-29 02:42:00,57.1,51.0,29.92,SSE,157,1.1,1.1,80,0.00,CLR,,0.00,WeatherDisplay:10.37,2013-05-29 09:42:00,
2013-05-29 02:47:00,57.1,51.0,29.92,SSE,163,3.5,3.5,80,0.00,CLR,,0.00,WeatherDisplay:10.37,2013-05-29 09:47:00,
2013-05-29 02:52:00,57.2,51.1,29.92,SE,124,1.1,1.1,80,0.00,CLR,,0.00,WeatherDisplay:10.37,2013-05-29 09:52:00,
2013-05-29 02:57:00,57.2,51.1,29.92,SE,143,0.0,0.0,80,0.00,CLR,,0.00,WeatherDisplay:10.37,2013-05-29 09:57:00,
2013-05-29 03:03:00,57.2,51.1,29.93,ESE,108,1.0,0.0,80,0.00,CLR,,0.00,WeatherDisplay:10.37,2013-05-29 10:03:00,
2013-05-29 03:08:00,57.3,51.2,29.92,ESE,115,1.1,0.0,80,0.00,CLR,,0.00,WeatherDisplay:10.37,2013-05-29 10:08:00,
2013-05-29 03:13:00,57.4,51.3,29.92,SSE,153,0.0,0.0,80,0.00,CLR,,0.00,WeatherDisplay:10.37,2013-05-29 10:13:00,
2013-05-29 03:18:00,57.4,51.3,29.92,SSE,166,0.0,0.0,80,0.00,CLR,,0.00,WeatherDisplay:10.37,2013-05-29 10:18:00,
2013-05-29 03:23:00,57.4,51.3,29.92,South,186,0.0,0.0,80,0.00,CLR,,0.00,WeatherDisplay:10.37,2013-05-29 10:23:00,
2013-05-29 03:28:00,57.4,51.3,29.91,South,174,2.3,2.3,80,0.00,CLR,,0.00,WeatherDisplay:10.37,2013-05-29 10:28:00,
2013-05-29 03:33:00,57.4,51.3,29.92,South,190,1.1,1.1,80,0.00,CLR,,0.00,WeatherDisplay:10.37,2013-05-29 10:33:00,
2013-05-29 03:38:00,57.4,51.3,29.92,SW,221,0.0,0.0,80,0.00,CLR,,0.00,WeatherDisplay:10.37,2013-05-29 10:38:00,
2013-05-29 03:43:00,57.4,51.3,29.92,SW,221,1.1,1.1,80,0.00,CLR,,0.00,WeatherDisplay:10.37,2013-05-29 10:43:00,
2013-05-29 03:48:00,57.4,51.3,29.92,SW,233,2.3,2.3,80,0.00,CLR,,0.00,WeatherDisplay:10.37,2013-05-29 10:48:00,
2013-05-29 03:53:00,57.5,51.4,29.92,SW,236,1.1,0.0,80,0.00,CLR,,0.00,WeatherDisplay:10.37,2013-05-29 10:53:00,
2013-05-29 03:58:00,57.5,51.4,29.91,SW,229,1.1,0.0,80,0.00,CLR,,0.00,WeatherDisplay:10.37,2013-05-29 10:58:00,
2013-05-29 04:03:00,57.5,51.4,29.91,SW,229,0.0,0.0,80,0.00,CLR,,0.00,WeatherDisplay:10.37,2013-05-29 11:03:00,
2013-05-29 04:08:00,57.4,51.3,29.92,SW,229,0.0,0.0,80,0.00,CLR,,0.00,WeatherDisplay:10.37,2013-05-29 11:08:00,
2013-05-29 04:13:00,57.4,51.3,29.91,SW,229,0.0,0.0,80,0.00,CLR,,0.00,WeatherDisplay:10.37,2013-05-29 11:13:00,
2013-05-29 04:18:00,57.4,51.3,29.92,SW,229,1.1,1.1,80,0.00,CLR,,0.00,WeatherDisplay:10.37,2013-05-29 11:18:00,
2013-05-29 04:23:00,57.4,51.3,29.91,SW,229,1.1,1.1,80,0.00,CLR,,0.00,WeatherDisplay:10.37,2013-05-29 11:23:00,
2013-05-29 04:28:00,57.4,51.3,29.91,SW,235,0.0,0.0,80,0.00,CLR,,0.00,WeatherDisplay:10.37,2013-05-29 11:28:00,
2013-05-29 04:33:00,57.2,51.1,29.91,SW,235,0.0,0.0,80,0.00,CLR,,0.00,WeatherDisplay:10.37,2013-05-29 11:33:00,
2013-05-29 04:38:00,57.0,51.2,29.91,SW,236,0.0,0.0,81,0.00,CLR,,0.00,WeatherDisplay:10.37,2013-05-29 11:38:00,
2013-05-29 04:43:00,56.9,51.1,29.91,SW,233,1.1,1.1,81,0.00,CLR,,0.00,WeatherDisplay:10.37,2013-05-29 11:43:00,
2013-05-29 04:48:00,56.9,51.1,29.91,SSE,166,1.1,0.0,81,0.00,CLR,,0.00,WeatherDisplay:10.37,2013-05-29 11:48:00,
2013-05-29 04:53:00,56.7,50.9,29.91,ESE,118,1.1,1.1,81,0.00,CLR,,0.00,WeatherDisplay:10.37,2013-05-29 11:53:00,
2013-05-29 04:58:00,56.6,51.2,29.91,South,169,0.0,0.0,82,0.00,CLR,,0.00,WeatherDisplay:10.37,2013-05-29 11:58:00,
2013-05-29 05:03:00,56.5,51.1,29.91,South,169,0.0,0.0,82,0.00,CLR,,0.00,WeatherDisplay:10.37,2013-05-29 12:03:00,
2013-05-29 05:08:00,56.6,51.2,29.91,SW,226,2.3,2.3,82,0.00,CLR,,0.00,WeatherDisplay:10.37,2013-05-29 12:08:00,
2013-05-29 05:13:00,56.7,51.3,29.91,SW,233,1.1,1.1,82,0.00,CLR,,0.00,WeatherDisplay:10.37,2013-05-29 12:13:00,
2013-05-29 05:18:00,56.8,51.4,29.91,West,269,2.3,2.3,82,0.00,CLR,,0.00,WeatherDisplay:10.37,2013-05-29 12:18:00,
2013-05-29 05:23:00,56.8,51.4,29.91,WSW,249,2.3,2.3,82,0.00,CLR,,0.00,WeatherDisplay:10.37,2013-05-29 12:23:00,
2013-05-29 05:28:00,56.9,51.1,29.91,SW,225,2.3,2.3,81,0.00,CLR,,0.00,WeatherDisplay:10.37,2013-05-29 12:28:00,
2013-05-29 05:33:00,56.8,51.0,29.91,SSE,168,3.5,3.5,81,0.00,CLR,,0.00,WeatherDisplay:10.37,2013-05-29 12:33:00,
2013-05-29 05:38:00,56.7,51.3,29.91,SSE,166,3.5,3.5,82,0.00,CLR,,0.00,WeatherDisplay:10.37,2013-05-29 12:38:00,
2013-05-29 05:43:00,56.7,50.9,29.91,SSE,159,0.0,0.0,81,0.00,CLR,,0.00,WeatherDisplay:10.37,2013-05-29 12:43:00,
2013-05-29 05:48:00,56.6,51.2,29.91,West,266,2.3,2.3,82,0.00,CLR,,0.00,WeatherDisplay:10.37,2013-05-29 12:48:00,
2013-05-29 05:53:00,56.4,51.0,29.91,SSE,166,2.3,2.3,82,0.00,CLR,,0.00,WeatherDisplay:10.37,2013-05-29 12:53:00,
2013-05-29 05:58:00,56.3,50.9,29.91,South,176,0.0,0.0,82,0.00,CLR,,0.00,WeatherDisplay:10.37,2013-05-29 12:58:00,
2013-05-29 06:03:00,56.3,51.2,29.91,South,180,2.3,2.3,83,0.00,CLR,,0.00,WeatherDisplay:10.37,2013-05-29 13:03:00,
2013-05-29 06:08:00,56.3,51.2,29.91,SSW,211,1.1,1.1,83,0.00,CLR,,0.00,WeatherDisplay:10.37,2013-05-29 13:08:00,
2013-05-29 06:13:00,56.5,51.4,29.92,SSW,212,1.1,0.0,83,0.00,CLR,,0.00,WeatherDisplay:10.37,2013-05-29 13:13:00,
2013-05-29 06:18:00,56.5,51.4,29.92,East,96,1.1,1.1,83,0.00,CLR,,0.00,WeatherDisplay:10.37,2013-05-29 13:18:00,
2013-05-29 06:23:00,56.5,51.4,29.92,East,96,1.1,0.0,83,0.00,CLR,,0.00,WeatherDisplay:10.37,2013-05-29 13:23:00,
2013-05-29 06:28:00,56.5,51.4,29.92,East,96,1.1,1.1,83,0.00,CLR,,0.00,WeatherDisplay:10.37,2013-05-29 13:28:00,
2013-05-29 06:33:00,57.2,52.1,29.92,East,96,0.0,0.0,83,0.00,CLR,,0.00,WeatherDisplay:10.37,2013-05-29 13:33:00,
2013-05-29 06:38:00,57.8,52.0,29.92,East,96,0.0,0.0,81,0.00,CLR,,0.00,WeatherDisplay:10.37,2013-05-29 13:38:00,
2013-05-29 06:43:00,58.2,52.1,29.92,East,89,0.0,0.0,80,0.00,CLR,,0.00,WeatherDisplay:10.37,2013-05-29 13:43:00,
2013-05-29 06:48:00,58.3,52.2,29.92,East,89,0.0,0.0,80,0.00,CLR,,0.00,WeatherDisplay:10.37,2013-05-29 13:48:00,
2013-05-29 06:53:00,58.4,51.6,29.93,North,355,2.3,2.3,78,0.00,CLR,,0.00,WeatherDisplay:10.37,2013-05-29 13:53:00,
2013-05-29 06:58:00,58.6,51.8,29.93,North,351,1.0,0.0,78,0.00,CLR,,0.00,WeatherDisplay:10.37,2013-05-29 13:58:00,
2013-05-29 07:03:00,59.0,51.8,29.93,NW,311,1.1,1.1,77,0.00,CLR,,0.00,WeatherDisplay:10.37,2013-05-29 14:03:00,
2013-05-29 07:08:00,59.4,51.5,29.93,NW,323,4.0,4.0,75,0.00,CLR,,0.00,WeatherDisplay:10.37,2013-05-29 14:08:00,
2013-05-29 07:13:00,59.7,51.8,29.93,NW,326,6.9,6.9,75,0.00,CLR,,0.00,WeatherDisplay:10.37,2013-05-29 14:13:00,
2013-05-29 07:18:00,59.8,51.9,29.93,North,4,6.9,6.9,75,0.00,CLR,,0.00,WeatherDisplay:10.37,2013-05-29 14:18:00,
2013-05-29 07:23:00,59.9,51.6,29.93,NNW,333,5.8,5.8,74,0.00,CLR,,0.00,WeatherDisplay:10.37,2013-05-29 14:23:00,
2013-05-29 07:28:00,60.3,52.0,29.93,NNW,342,5.8,5.8,74,0.00,CLR,,0.00,WeatherDisplay:10.37,2013-05-29 14:28:00,
2013-05-29 07:33:00,60.7,52.0,29.94,NNW,338,5.8,5.8,73,0.00,CLR,,0.00,WeatherDisplay:10.37,2013-05-29 14:33:00,
2013-05-29 07:38:00,61.0,51.9,29.93,NNW,339,8.1,8.1,72,0.00,CLR,,0.00,WeatherDisplay:10.37,2013-05-29 14:38:00,
2013-05-29 07:43:00,61.2,52.1,29.94,NNW,329,5.8,5.8,72,0.00,CLR,,0.00,WeatherDisplay:10.37,2013-05-29 14:43:00,
2013-05-29 07:48:00,61.6,52.5,29.94,NNW,340,8.1,8.1,72,0.00,CLR,,0.00,WeatherDisplay:10.37,2013-05-29 14:48:00,
2013-05-29 07:53:00,61.8,52.7,29.93,NNW,342,6.9,6.9,72,0.00,CLR,,0.00,WeatherDisplay:10.37,2013-05-29 14:53:00,
2013-05-29 07:58:00,62.0,52.9,29.93,NNW,342,6.9,6.9,72,0.00,CLR,,0.00,WeatherDisplay:10.37,2013-05-29 14:58:00,
2013-05-29 08:03:00,62.5,53.3,29.93,NW,319,5.8,5.8,72,0.00,CLR,,0.00,WeatherDisplay:10.37,2013-05-29 15:03:00,
2013-05-29 08:08:00,62.6,53.1,29.93,North,1,8.1,8.1,71,0.00,CLR,,0.00,WeatherDisplay:10.37,2013-05-29 15:08:00,
2013-05-29 08:13:00,62.6,53.4,29.94,NNE,27,6.0,6.0,72,0.00,CLR,,0.00,WeatherDisplay:10.37,2013-05-29 15:13:00,
2013-05-29 08:18:00,62.6,53.4,29.93,NNE,21,8.0,8.0,72,0.00,CLR,,0.00,WeatherDisplay:10.37,2013-05-29 15:18:00,
2013-05-29 08:23:00,62.7,53.2,29.93,NW,310,5.8,5.8,71,0.00,CLR,,0.00,WeatherDisplay:10.37,2013-05-29 15:23:00,
2013-05-29 08:28:00,63.0,53.1,29.93,NNE,16,8.1,8.1,70,0.00,CLR,,0.00,WeatherDisplay:10.37,2013-05-29 15:28:00,
2013-05-29 08:33:00,63.0,53.4,29.93,NW,326,6.9,6.9,71,0.00,CLR,,0.00,WeatherDisplay:10.37,2013-05-29 15:33:00,
2013-05-29 08:38:00,63.1,53.9,29.94,North,360,5.8,5.8,72,0.00,CLR,,0.00,WeatherDisplay:10.37,2013-05-29 15:38:00,
2013-05-29 08:43:00,63.7,54.1,29.94,NNE,23,6.0,6.0,71,0.00,CLR,,0.00,WeatherDisplay:10.37,2013-05-29 15:43:00,
2013-05-29 08:48:00,64.1,54.1,29.93,NE,51,8.1,8.1,70,0.00,CLR,,0.00,WeatherDisplay:10.37,2013-05-29 15:48:00,
2013-05-29 08:53:00,64.1,54.1,29.93,NE,50,8.1,8.1,70,0.00,CLR,,0.00,WeatherDisplay:10.37,2013-05-29 15:53:00,
2013-05-29 08:58:00,64.3,54.3,29.93,North,9,6.0,6.0,70,0.00,CLR,,0.00,WeatherDisplay:10.37,2013-05-29 15:58:00,
2013-05-29 09:03:00,64.8,54.4,29.93,NE,41,10.4,10.4,69,0.00,CLR,,0.00,WeatherDisplay:10.37,2013-05-29 16:03:00,
2013-05-29 09:08:00,65.2,54.4,29.93,NE,39,6.9,6.9,68,0.00,CLR,,0.00,WeatherDisplay:10.37,2013-05-29 16:08:00,
2013-05-29 09:13:00,65.8,54.5,29.93,NNW,330,10.0,10.0,67,0.00,CLR,,0.00,WeatherDisplay:10.37,2013-05-29 16:13:00,
2013-05-29 09:18:00,66.1,54.4,29.93,NNW,334,10.4,10.4,66,0.00,CLR,,0.00,WeatherDisplay:10.37,2013-05-29 16:18:00,
2013-05-29 09:23:00,66.6,54.5,29.93,NW,319,4.6,4.6,65,0.00,CLR,,0.00,WeatherDisplay:10.37,2013-05-29 16:23:00,
2013-05-29 09:28:00,66.5,54.4,29.93,North,357,6.9,6.9,65,0.00,CLR,,0.00,WeatherDisplay:10.37,2013-05-29 16:28:00,
2013-05-29 09:33:00,67.0,54.4,29.93,West,275,3.5,3.5,64,0.00,CLR,,0.00,WeatherDisplay:10.37,2013-05-29 16:33:00,
2013-05-29 09:38:00,66.9,53.5,29.93,NNW,333,6.9,6.9,62,0.00,CLR,,0.00,WeatherDisplay:10.37,2013-05-29 16:38:00,
2013-05-29 09:43:00,66.9,53.5,29.93,NNW,328,8.1,8.1,62,0.00,CLR,,0.00,WeatherDisplay:10.37,2013-05-29 16:43:00,
2013-05-29 09:48:00,67.2,54.2,29.93,NW,314,5.0,5.0,63,0.00,CLR,,0.00,WeatherDisplay:10.37,2013-05-29 16:48:00,
2013-05-29 09:53:00,67.5,54.9,29.93,NW,304,6.0,6.0,64,0.00,CLR,,0.00,WeatherDisplay:10.37,2013-05-29 16:53:00,
2013-05-29 09:58:00,67.6,53.7,29.93,NW,307,10.4,10.4,61,0.00,CLR,,0.00,WeatherDisplay:10.37,2013-05-29 16:58:00,
2013-05-29 10:03:00,67.7,53.8,29.93,West,281,5.0,5.0,61,0.00,CLR,,0.00,WeatherDisplay:10.37,2013-05-29 17:03:00,
2013-05-29 10:08:00,68.0,53.6,29.92,NNW,338,5.8,5.8,60,0.00,CLR,,0.00,WeatherDisplay:10.37,2013-05-29 17:08:00,
2013-05-29 10:13:00,68.0,54.0,29.92,West,277,6.9,6.9,61,0.00,CLR,,0.00,WeatherDisplay:10.37,2013-05-29 17:13:00,
2013-05-29 10:18:00,68.6,53.7,29.93,West,280,5.8,5.8,59,0.00,CLR,,0.00,WeatherDisplay:10.37,2013-05-29 17:18:00,
2013-05-29 10:23:00,68.8,54.3,29.92,NNW,330,1.1,1.1,60,0.00,CLR,,0.00,WeatherDisplay:10.37,2013-05-29 17:23:00,
2013-05-29 10:28:00,68.9,53.5,29.92,NNE,19,12.7,12.7,58,0.00,CLR,,0.00,WeatherDisplay:10.37,2013-05-29 17:28:00,
2013-05-29 10:33:00,68.6,53.2,29.92,NW,305,4.6,4.6,58,0.00,CLR,,0.00,WeatherDisplay:10.37,2013-05-29 17:33:00,
2013-05-29 10:38:00,69.0,53.6,29.92,NE,56,4.6,4.6,58,0.00,CLR,,0.00,WeatherDisplay:10.37,2013-05-29 17:38:00,
2013-05-29 10:43:00,69.2,52.8,29.92,NNW,335,11.5,11.5,56,0.00,CLR,,0.00,WeatherDisplay:10.37,2013-05-29 17:43:00,
2013-05-29 10:48:00,69.3,52.4,29.92,NW,322,11.5,11.5,55,0.00,CLR,,0.00,WeatherDisplay:10.37,2013-05-29 17:48:00,
2013-05-29 10:53:00,69.7,52.3,29.92,NW,325,5.8,5.8,54,0.00,CLR,,0.00,WeatherDisplay:10.37,2013-05-29 17:53:00,
2013-05-29 10:58:00,69.9,53.0,29.92,WNW,302,3.5,3.5,55,0.00,CLR,,0.00,WeatherDisplay:10.37,2013-05-29 17:58:00,
2013-05-29 11:03:00,70.1,52.7,29.92,WSW,240,6.0,6.0,54,0.00,CLR,,0.00,WeatherDisplay:10.37,2013-05-29 18:03:00,
2013-05-29 11:08:00,70.6,52.6,29.92,NW,305,8.1,8.1,53,0.00,CLR,,0.00,WeatherDisplay:10.37,2013-05-29 18:08:00,
2013-05-29 11:13:00,70.6,52.6,29.92,ENE,65,9.2,9.2,53,0.00,CLR,,0.00,WeatherDisplay:10.37,2013-05-29 18:13:00,
2013-05-29 11:18:00,71.0,53.0,29.92,WNW,284,2.3,2.3,53,0.00,CLR,,0.00,WeatherDisplay:10.37,2013-05-29 18:18:00,
2013-05-29 11:23:00,71.6,53.0,29.92,North,1,11.0,11.0,52,0.00,CLR,,0.00,WeatherDisplay:10.37,2013-05-29 18:23:00,
2013-05-29 11:28:00,71.6,52.5,29.92,NNW,332,6.9,6.9,51,0.00,CLR,,0.00,WeatherDisplay:10.37,2013-05-29 18:28:00,
2013-05-29 11:33:00,71.7,52.1,29.92,NNW,329,8.1,8.1,50,0.00,CLR,,0.00,WeatherDisplay:10.37,2013-05-29 18:33:00,
2013-05-29 11:38:00,71.6,52.0,29.92,NNE,20,4.6,4.6,50,0.00,CLR,,0.00,WeatherDisplay:10.37,2013-05-29 18:38:00,
2013-05-29 11:43:00,72.0,51.2,29.92,NW,308,4.6,4.6,48,0.00,CLR,,0.00,WeatherDisplay:10.37,2013-05-29 18:43:00,
2013-05-29 11:48:00,73.0,52.7,29.92,SSW,210,3.5,3.5,49,0.00,CLR,,0.00,WeatherDisplay:10.37,2013-05-29 18:48:00,
2013-05-29 11:53:00,74.1,53.2,29.92,NNW,328,5.8,5.8,48,0.00,CLR,,0.00,WeatherDisplay:10.37,2013-05-29 18:53:00,
2013-05-29 11:58:00,73.8,51.1,29.92,NNW,342,8.1,8.1,45,0.00,CLR,,0.00,WeatherDisplay:10.37,2013-05-29 18:58:00,
2013-05-29 12:03:00,73.9,51.8,29.91,NNW,345,9.2,9.2,46,0.00,CLR,,0.00,WeatherDisplay:10.37,2013-05-29 19:03:00,
2013-05-29 12:08:00,73.9,51.2,29.92,NE,44,6.9,6.9,45,0.00,CLR,,0.00,WeatherDisplay:10.37,2013-05-29 19:08:00,
2013-05-29 12:13:00,74.6,53.0,29.91,NNW,332,8.1,8.1,47,0.00,CLR,,0.00,WeatherDisplay:10.37,2013-05-29 19:13:00,
2013-05-29 12:18:00,74.4,52.3,29.92,NNW,333,6.9,6.9,46,0.00,CLR,,0.00,WeatherDisplay:10.37,2013-05-29 19:18:00,
2013-05-29 12:23:00,74.5,52.4,29.92,NNW,328,3.5,3.5,46,0.00,CLR,,0.00,WeatherDisplay:10.37,2013-05-29 19:23:00,
2013-05-29 12:28:00,76.3,54.0,29.91,West,275,11.5,11.5,46,0.00,CLR,,0.00,WeatherDisplay:10.37,2013-05-29 19:28:00,
2013-05-29 12:33:00,77.7,54.0,29.91,West,266,4.6,4.6,44,0.00,CLR,,0.00,WeatherDisplay:10.37,2013-05-29 19:33:00,
2013-05-29 12:38:00,78.3,53.3,29.91,WNW,293,2.3,2.3,42,0.00,CLR,,0.00,WeatherDisplay:10.37,2013-05-29 19:38:00,
2013-05-29 12:43:00,78.6,54.2,29.91,WNW,285,3.0,3.0,43,0.00,CLR,,0.00,WeatherDisplay:10.37,2013-05-29 19:43:00,
2013-05-29 12:48:00,78.8,54.4,29.91,WSW,239,9.2,9.2,43,0.00,CLR,,0.00,WeatherDisplay:10.37,2013-05-29 19:48:00,
2013-05-29 12:53:00,79.4,53.6,29.91,SW,232,8.1,8.1,41,0.00,CLR,,0.00,WeatherDisplay:10.37,2013-05-29 19:53:00,
2013-05-29 12:58:00,79.3,53.6,29.90,West,273,2.3,2.3,41,0.00,CLR,,0.00,WeatherDisplay:10.37,2013-05-29 19:58:00,
2013-05-29 13:03:00,80.4,54.5,29.90,SW,229,10.0,10.0,41,0.00,CLR,,0.00,WeatherDisplay:10.37,2013-05-29 20:03:00,
2013-05-29 13:08:00,79.6,54.5,29.90,WNW,295,8.1,8.1,42,0.00,CLR,,0.00,WeatherDisplay:10.37,2013-05-29 20:08:00,
2013-05-29 13:13:00,78.2,51.9,29.90,WNW,302,5.8,5.8,40,0.00,CLR,,0.00,WeatherDisplay:10.37,2013-05-29 20:13:00,
2013-05-29 13:18:00,78.0,53.0,29.89,WSW,246,3.5,3.5,42,0.00,CLR,,0.00,WeatherDisplay:10.37,2013-05-29 20:18:00,
2013-05-29 13:23:00,78.8,55.0,29.89,West,269,3.5,3.5,44,0.00,CLR,,0.00,WeatherDisplay:10.37,2013-05-29 20:23:00,
2013-05-29 13:28:00,79.5,55.0,29.89,WNW,302,5.8,5.8,43,0.00,CLR,,0.00,WeatherDisplay:10.37,2013-05-29 20:28:00,
2013-05-29 13:33:00,79.1,54.7,29.89,WNW,302,4.0,4.0,43,0.00,CLR,,0.00,WeatherDisplay:10.37,2013-05-29 20:33:00,
2013-05-29 13:38:00,79.8,54.0,29.89,WSW,243,7.0,7.0,41,0.00,CLR,,0.00,WeatherDisplay:10.37,2013-05-29 20:38:00,
2013-05-29 13:43:00,81.2,53.2,29.89,West,276,4.6,4.6,38,0.00,CLR,,0.00,WeatherDisplay:10.37,2013-05-29 20:43:00,
2013-05-29 13:48:00,80.9,53.6,29.88,WNW,290,4.6,4.6,39,0.00,CLR,,0.00,WeatherDisplay:10.37,2013-05-29 20:48:00,
2013-05-29 13:53:00,82.0,52.4,29.88,WSW,245,6.9,6.9,36,0.00,CLR,,0.00,WeatherDisplay:10.37,2013-05-29 20:53:00,
2013-05-29 13:58:00,79.9,51.3,29.88,NNE,29,2.3,2.3,37,0.00,CLR,,0.00,WeatherDisplay:10.37,2013-05-29 20:58:00,
2013-05-29 14:03:00,80.7,54.1,29.88,WNW,284,6.9,6.9,40,0.00,CLR,,0.00,WeatherDisplay:10.37,2013-05-29 21:03:00,
2013-05-29 14:08:00,82.0,54.6,29.88,WNW,302,8.1,8.1,39,0.00,CLR,,0.00,WeatherDisplay:10.37,2013-05-29 21:08:00,
2013-05-29 14:13:00,81.0,53.0,29.88,North,358,3.5,3.5,38,0.00,CLR,,0.00,WeatherDisplay:10.37,2013-05-29 21:13:00,
2013-05-29 14:18:00,81.4,54.1,29.88,WNW,282,4.6,4.6,39,0.00,CLR,,0.00,WeatherDisplay:10.37,2013-05-29 21:18:00,
2013-05-29 14:23:00,81.6,52.1,29.88,West,271,8.1,8.1,36,0.00,CLR,,0.00,WeatherDisplay:10.37,2013-05-29 21:23:00,
2013-05-29 14:28:00,81.0,53.0,29.88,North,353,8.1,8.1,38,0.00,CLR,,0.00,WeatherDisplay:10.37,2013-05-29 21:28:00,
2013-05-29 14:33:00,80.2,53.7,29.87,NNW,336,5.8,5.8,40,0.00,CLR,,0.00,WeatherDisplay:10.37,2013-05-29 21:33:00,
2013-05-29 14:38:00,80.7,54.1,29.88,WNW,287,3.5,3.5,40,0.00,CLR,,0.00,WeatherDisplay:10.37,2013-05-29 21:38:00,
2013-05-29 14:43:00,81.2,55.3,29.87,NNE,20,5.0,5.0,41,0.00,CLR,,0.00,WeatherDisplay:10.37,2013-05-29 21:43:00,
2013-05-29 14:48:00,80.8,54.2,29.87,WNW,292,4.0,4.0,40,0.00,CLR,,0.00,WeatherDisplay:10.37,2013-05-29 21:48:00,
2013-05-29 14:53:00,80.5,54.0,29.87,SW,218,9.0,9.0,40,0.00,CLR,,0.00,WeatherDisplay:10.37,2013-05-29 21:53:00,
2013-05-29 14:58:00,81.7,52.9,29.87,West,259,4.6,4.6,37,0.00,CLR,,0.00,WeatherDisplay:10.37,2013-05-29 21:58:00,
2013-05-29 15:03:00,82.7,53.0,29.87,SSW,193,4.6,4.6,36,0.00,CLR,,0.00,WeatherDisplay:10.37,2013-05-29 22:03:00,
2013-05-29 15:08:00,82.3,53.4,29.86,WNW,290,6.9,6.9,37,0.00,CLR,,0.00,WeatherDisplay:10.37,2013-05-29 22:08:00,
2013-05-29 15:13:00,82.5,53.6,29.86,WNW,288,5.8,5.8,37,0.00,CLR,,0.00,WeatherDisplay:10.37,2013-05-29 22:13:00,
2013-05-29 15:18:00,82.7,55.2,29.86,WSW,250,4.6,4.6,39,0.00,CLR,,0.00,WeatherDisplay:10.37,2013-05-29 22:18:00,
2013-05-29 15:23:00,82.3,54.2,29.86,SW,215,11.5,11.5,38,0.00,CLR,,0.00,WeatherDisplay:10.37,2013-05-29 22:23:00,
2013-05-29 15:28:00,81.8,53.7,29.86,West,278,3.5,3.5,38,0.00,CLR,,0.00,WeatherDisplay:10.37,2013-05-29 22:28:00,
2013-05-29 15:33:00,81.5,54.2,29.87,WNW,290,5.8,5.8,39,0.00,CLR,,0.00,WeatherDisplay:10.37,2013-05-29 22:33:00,
2013-05-29 15:38:00,82.0,54.6,29.86,WSW,245,6.0,6.0,39,0.00,CLR,,0.00,WeatherDisplay:10.37,2013-05-29 22:38:00,
2013-05-29 15:43:00,82.7,55.2,29.86,West,259,5.0,5.0,39,0.00,CLR,,0.00,WeatherDisplay:10.37,2013-05-29 22:43:00,
2013-05-29 15:48:00,82.9,54.7,29.86,WSW,257,4.0,4.0,38,0.00,CLR,,0.00,WeatherDisplay:10.37,2013-05-29 22:48:00,
2013-05-29 15:53:00,82.3,54.9,29.86,West,273,5.0,5.0,39,0.00,CLR,,0.00,WeatherDisplay:10.37,2013-05-29 22:53:00,
2013-05-29 15:58:00,81.7,53.6,29.86,SW,225,9.2,9.2,38,0.00,CLR,,0.00,WeatherDisplay:10.37,2013-05-29 22:58:00,
2013-05-29 16:03:00,81.3,54.0,29.86,West,267,6.9,6.9,39,0.00,CLR,,0.00,WeatherDisplay:10.37,2013-05-29 23:03:00,
2013-05-29 16:08:00,80.5,54.0,29.86,South,173,11.5,11.5,40,0.00,CLR,,0.00,WeatherDisplay:10.37,2013-05-29 23:08:00,
2013-05-29 16:13:00,80.7,54.8,29.86,SW,225,6.0,6.0,41,0.00,CLR,,0.00,WeatherDisplay:10.37,2013-05-29 23:13:00,
2013-05-29 16:18:00,80.1,54.3,29.86,South,177,12.7,12.7,41,0.00,CLR,,0.00,WeatherDisplay:10.37,2013-05-29 23:18:00,
2013-05-29 16:23:00,80.2,54.4,29.86,NNE,12,8.1,8.1,41,0.00,CLR,,0.00,WeatherDisplay:10.37,2013-05-29 23:23:00,
2013-05-29 16:28:00,79.7,53.9,29.86,NW,312,11.5,11.5,41,0.00,CLR,,0.00,WeatherDisplay:10.37,2013-05-29 23:28:00,
2013-05-29 16:33:00,79.4,53.6,29.86,WSW,250,11.5,11.5,41,0.00,CLR,,0.00,WeatherDisplay:10.37,2013-05-29 23:33:00,
2013-05-29 16:38:00,79.2,54.1,29.86,WSW,246,8.1,8.1,42,0.00,CLR,,0.00,WeatherDisplay:10.37,2013-05-29 23:38:00,
2013-05-29 16:43:00,79.1,54.0,29.86,NW,311,8.1,8.1,42,0.00,CLR,,0.00,WeatherDisplay:10.37,2013-05-29 23:43:00,
2013-05-29 16:48:00,78.8,53.1,29.86,WSW,256,9.2,9.2,41,0.00,CLR,,0.00,WeatherDisplay:10.37,2013-05-29 23:48:00,
2013-05-29 16:53:00,78.8,53.1,29.86,South,191,5.8,5.8,41,0.00,CLR,,0.00,WeatherDisplay:10.37,2013-05-29 23:53:00,
2013-05-29 16:58:00,78.9,53.2,29.86,WSW,250,6.9,6.9,41,0.00,CLR,,0.00,WeatherDisplay:10.37,2013-05-29 23:58:00,
2013-05-29 17:03:00,78.7,53.0,29.86,North,357,4.6,4.6,41,0.00,CLR,,0.00,WeatherDisplay:10.37,2013-05-30 00:03:00,
2013-05-29 17:08:00,78.6,53.6,29.86,WNW,283,10.4,10.4,42,0.00,CLR,,0.00,WeatherDisplay:10.37,2013-05-30 00:08:00,
2013-05-29 17:13:00,78.8,53.1,29.86,West,275,4.6,4.6,41,0.00,CLR,,0.00,WeatherDisplay:10.37,2013-05-30 00:13:00,
2013-05-29 17:18:00,78.8,53.1,29.86,West,271,5.8,5.8,41,0.00,CLR,,0.00,WeatherDisplay:10.37,2013-05-30 00:18:00,
2013-05-29 17:23:00,78.3,52.7,29.86,WSW,242,5.8,5.8,41,0.00,CLR,,0.00,WeatherDisplay:10.37,2013-05-30 00:23:00,
2013-05-29 17:28:00,77.9,52.3,29.86,SW,232,10.4,10.4,41,0.00,CLR,,0.00,WeatherDisplay:10.37,2013-05-30 00:28:00,
2013-05-29 17:33:00,78.1,51.8,29.86,West,259,9.2,9.2,40,0.00,CLR,,0.00,WeatherDisplay:10.37,2013-05-30 00:33:00,
2013-05-29 17:38:00,78.0,51.7,29.86,West,270,6.9,6.9,40,0.00,CLR,,0.00,WeatherDisplay:10.37,2013-05-30 00:38:00,
2013-05-29 17:43:00,78.1,51.1,29.86,WNW,288,4.6,4.6,39,0.00,CLR,,0.00,WeatherDisplay:10.37,2013-05-30 00:43:00,
2013-05-29 17:48:00,78.4,50.7,29.86,NW,319,6.0,6.0,38,0.00,CLR,,0.00,WeatherDisplay:10.37,2013-05-30 00:48:00,
2013-05-29 17:53:00,78.4,50.0,29.86,West,262,6.9,6.9,37,0.00,CLR,,0.00,WeatherDisplay:10.37,2013-05-30 00:53:00,
2013-05-29 17:58:00,78.5,50.1,29.86,SW,236,9.2,9.2,37,0.00,CLR,,0.00,WeatherDisplay:10.37,2013-05-30 00:58:00,
2013-05-29 18:03:00,78.1,50.4,29.86,SW,225,6.9,6.9,38,0.00,CLR,,0.00,WeatherDisplay:10.37,2013-05-30 01:03:00,
2013-05-29 18:08:00,77.9,50.2,29.86,NNW,333,5.8,5.8,38,0.00,CLR,,0.00,WeatherDisplay:10.37,2013-05-30 01:08:00,
2013-05-29 18:13:00,78.0,48.9,29.85,South,190,3.5,3.5,36,0.00,CLR,,0.00,WeatherDisplay:10.37,2013-05-30 01:13:00,
2013-05-29 18:18:00,78.6,50.1,29.85,West,270,5.8,5.8,37,0.00,CLR,,0.00,WeatherDisplay:10.37,2013-05-30 01:18:00,
2013-05-29 18:23:00,78.4,49.2,29.85,West,266,4.6,4.6,36,0.00,CLR,,0.00,WeatherDisplay:10.37,2013-05-30 01:23:00,
2013-05-29 18:28:00,78.2,49.1,29.85,NW,318,8.1,8.1,36,0.00,CLR,,0.00,WeatherDisplay:10.37,2013-05-30 01:28:00,
2013-05-29 18:33:00,77.9,49.5,29.85,WSW,246,8.1,8.1,37,0.00,CLR,,0.00,WeatherDisplay:10.37,2013-05-30 01:33:00,
2013-05-29 18:38:00,77.7,50.1,29.85,WNW,300,3.5,3.5,38,0.00,CLR,,0.00,WeatherDisplay:10.37,2013-05-30 01:38:00,
2013-05-29 18:43:00,77.7,50.8,29.85,WNW,292,3.5,3.5,39,0.00,CLR,,0.00,WeatherDisplay:10.37,2013-05-30 01:43:00,
2013-05-29 18:48:00,77.6,51.4,29.85,WNW,302,4.6,4.6,40,0.00,CLR,,0.00,WeatherDisplay:10.37,2013-05-30 01:48:00,
2013-05-29 18:54:00,77.3,51.1,29.86,NW,326,3.5,3.5,40,0.00,CLR,,0.00,WeatherDisplay:10.37,2013-05-30 01:54:00,
2013-05-29 18:59:00,77.5,51.3,29.86,WSW,238,2.3,2.3,40,0.00,CLR,,0.00,WeatherDisplay:10.37,2013-05-30 01:59:00,
2013-05-29 19:04:00,78.0,51.7,29.86,WNW,295,3.5,3.5,40,0.00,CLR,,0.00,WeatherDisplay:10.37,2013-05-30 02:04:00,
2013-05-29 19:09:00,78.0,51.7,29.86,NW,316,2.3,2.3,40,0.00,CLR,,0.00,WeatherDisplay:10.37,2013-05-30 02:09:00,
2013-05-29 19:14:00,77.6,51.4,29.86,WNW,298,3.5,3.5,40,0.00,CLR,,0.00,WeatherDisplay:10.37,2013-05-30 02:14:00,
2013-05-29 19:19:00,76.8,50.6,29.86,NW,314,9.2,9.2,40,0.00,CLR,,0.00,WeatherDisplay:10.37,2013-05-30 02:19:00,
2013-05-29 19:24:00,76.3,50.9,29.86,NW,311,5.8,5.8,41,0.00,CLR,,0.00,WeatherDisplay:10.37,2013-05-30 02:24:00,
2013-05-29 19:29:00,76.2,50.1,29.87,West,274,3.5,3.5,40,0.00,CLR,,0.00,WeatherDisplay:10.37,2013-05-30 02:29:00,
2013-05-29 19:34:00,76.7,50.6,29.87,West,273,3.5,3.5,40,0.00,CLR,,0.00,WeatherDisplay:10.37,2013-05-30 02:34:00,
2013-05-29 19:39:00,76.7,49.9,29.87,WSW,255,3.5,3.5,39,0.00,CLR,,0.00,WeatherDisplay:10.37,2013-05-30 02:39:00,
2013-05-29 19:44:00,76.4,48.9,29.87,WSW,245,3.5,3.5,38,0.00,CLR,,0.00,WeatherDisplay:10.37,2013-05-30 02:44:00,
2013-05-29 19:49:00,76.4,49.6,29.87,SSW,192,2.3,2.3,39,0.00,CLR,,0.00,WeatherDisplay:10.37,2013-05-30 02:49:00,
2013-05-29 19:54:00,76.1,48.6,29.87,NW,312,4.6,4.6,38,0.00,CLR,,0.00,WeatherDisplay:10.37,2013-05-30 02:54:00,
2013-05-29 19:59:00,75.6,46.0,29.87,WSW,249,3.5,3.5,35,0.00,CLR,,0.00,WeatherDisplay:10.37,2013-05-30 02:59:00,
2013-05-29 20:04:00,75.2,46.4,29.87,West,259,3.5,3.5,36,0.00,CLR,,0.00,WeatherDisplay:10.37,2013-05-30 03:04:00,
2013-05-29 20:09:00,74.4,46.4,29.88,WSW,256,3.5,3.5,37,0.00,CLR,,0.00,WeatherDisplay:10.37,2013-05-30 03:09:00,
2013-05-29 20:14:00,73.5,46.3,29.88,West,270,3.5,3.5,38,0.00,CLR,,0.00,WeatherDisplay:10.37,2013-05-30 03:14:00,
2013-05-29 20:19:00,72.9,46.5,29.88,SW,232,2.3,2.3,39,0.00,CLR,,0.00,WeatherDisplay:10.37,2013-05-30 03:19:00,
2013-05-29 20:24:00,72.2,46.5,29.88,West,273,1.1,1.1,40,0.00,CLR,,0.00,WeatherDisplay:10.37,2013-05-30 03:24:00,
2013-05-29 20:29:00,71.7,46.1,29.88,NW,307,1.1,1.1,40,0.00,CLR,,0.00,WeatherDisplay:10.37,2013-05-30 03:29:00,
2013-05-29 20:34:00,71.3,46.4,29.88,WNW,302,3.5,3.5,41,0.00,CLR,,0.00,WeatherDisplay:10.37,2013-05-30 03:34:00,
2013-05-29 20:39:00,71.0,46.7,29.88,WSW,250,4.6,4.6,42,0.00,CLR,,0.00,WeatherDisplay:10.37,2013-05-30 03:39:00,
2013-05-29 20:44:00,70.8,47.2,29.88,WNW,285,1.1,1.1,43,0.00,CLR,,0.00,WeatherDisplay:10.37,2013-05-30 03:44:00,
2013-05-29 20:49:00,70.3,47.3,29.88,WNW,290,1.0,1.0,44,0.00,CLR,,0.00,WeatherDisplay:10.37,2013-05-30 03:49:00,
2013-05-29 20:54:00,69.9,47.6,29.88,NNW,338,2.3,2.3,45,0.00,CLR,,0.00,WeatherDisplay:10.37,2013-05-30 03:54:00,
2013-05-29 20:59:00,69.4,48.3,29.88,WSW,250,1.1,1.1,47,0.00,CLR,,0.00,WeatherDisplay:10.37,2013-05-30 03:59:00,
2013-05-29 21:01:00,69.2,48.1,29.89,WSW,250,1.1,1.1,47,0.00,CLR,,0.00,WeatherDisplay:10.37,2013-05-30 04:01:00,
2013-05-29 21:02:00,69.1,48.6,29.89,WSW,248,1.1,1.1,48,0.00,CLR,,0.00,WeatherDisplay:10.37,2013-05-30 04:02:00,
2013-05-29 21:03:00,69.0,48.5,29.89,SSW,198,1.1,1.1,48,0.00,CLR,,0.00,WeatherDisplay:10.37,2013-05-30 04:03:00,
2013-05-29 21:06:00,68.7,50.4,29.89,South,170,2.3,2.3,52,0.00,CLR,,0.00,WeatherDisplay:10.37,2013-05-30 04:06:00,
2013-05-29 21:11:00,67.7,50.9,29.89,SSW,193,2.3,2.3,55,0.00,CLR,,0.00,WeatherDisplay:10.37,2013-05-30 04:11:00,
2013-05-29 21:16:00,66.8,51.1,29.89,South,170,0.0,0.0,57,0.00,CLR,,0.00,WeatherDisplay:10.37,2013-05-30 04:16:00,
2013-05-29 21:21:00,65.8,51.1,29.89,SSE,166,3.5,3.5,59,0.00,CLR,,0.00,WeatherDisplay:10.37,2013-05-30 04:21:00,
2013-05-29 21:26:00,65.1,51.3,29.90,South,185,3.5,3.5,61,0.00,CLR,,0.00,WeatherDisplay:10.37,2013-05-30 04:26:00,
2013-05-29 21:31:00,64.7,51.4,29.90,SW,232,3.5,3.5,62,0.00,CLR,,0.00,WeatherDisplay:10.37,2013-05-30 04:31:00,
2013-05-29 21:36:00,64.3,51.0,29.90,SSE,162,3.5,3.5,62,0.00,CLR,,0.00,WeatherDisplay:10.37,2013-05-30 04:36:00,
2013-05-29 21:41:00,64.0,51.1,29.90,WSW,244,2.3,2.3,63,0.00,CLR,,0.00,WeatherDisplay:10.37,2013-05-30 04:41:00,
2013-05-29 21:46:00,63.6,51.2,29.90,SSW,195,3.5,3.5,64,0.00,CLR,,0.00,WeatherDisplay:10.37,2013-05-30 04:46:00,
2013-05-29 21:51:00,63.4,51.0,29.91,South,172,4.6,4.6,64,0.00,CLR,,0.00,WeatherDisplay:10.37,2013-05-30 04:51:00,
2013-05-29 21:56:00,63.1,51.1,29.91,WSW,240,2.3,2.3,65,0.00,CLR,,0.00,WeatherDisplay:10.37,2013-05-30 04:56:00,
2013-05-29 22:01:00,62.8,50.9,29.91,WSW,249,0.0,0.0,65,0.00,CLR,,0.00,WeatherDisplay:10.37,2013-05-30 05:01:00,
2013-05-29 22:06:00,62.4,50.9,29.91,SW,217,1.1,1.1,66,0.00,CLR,,0.00,WeatherDisplay:10.37,2013-05-30 05:06:00,
2013-05-29 22:11:00,62.0,50.9,29.92,South,176,1.1,1.3,67,0.00,CLR,,0.00,WeatherDisplay:10.37,2013-05-30 05:11:00,
2013-05-29 22:16:00,61.7,51.0,29.92,SSW,205,1.1,1.2,68,0.00,CLR,,0.00,WeatherDisplay:10.37,2013-05-30 05:16:00,
2013-05-29 22:21:00,61.3,50.6,29.92,SSW,204,3.5,3.5,68,0.00,CLR,,0.00,WeatherDisplay:10.37,2013-05-30 05:21:00,
2013-05-29 22:26:00,61.0,50.8,29.92,SSW,204,3.5,3.5,69,0.00,CLR,,0.00,WeatherDisplay:10.37,2013-05-30 05:26:00,
2013-05-29 22:31:00,60.7,50.5,29.92,South,173,3.5,3.5,69,0.00,CLR,,0.00,WeatherDisplay:10.37,2013-05-30 05:31:00,
2013-05-29 22:36:00,60.4,50.6,29.92,South,172,2.0,2.0,70,0.00,CLR,,0.00,WeatherDisplay:10.37,2013-05-30 05:36:00,
2013-05-29 22:41:00,60.0,50.6,29.92,SSW,200,3.5,3.5,71,0.00,CLR,,0.00,WeatherDisplay:10.37,2013-05-30 05:41:00,
2013-05-29 22:46:00,59.7,50.3,29.92,WSW,248,2.3,2.3,71,0.00,CLR,,0.00,WeatherDisplay:10.37,2013-05-30 05:46:00,
2013-05-29 22:51:00,59.5,50.5,29.92,WSW,242,1.1,1.1,72,0.00,CLR,,0.00,WeatherDisplay:10.37,2013-05-30 05:51:00,
2013-05-29 22:56:00,59.2,50.2,29.92,SSW,212,1.1,1.1,72,0.00,CLR,,0.00,WeatherDisplay:10.37,2013-05-30 05:56:00,
2013-05-29 23:01:00,59.0,50.4,29.92,SW,218,2.3,2.3,73,0.00,CLR,,0.00,WeatherDisplay:10.37,2013-05-30 06:01:00,
2013-05-29 23:06:00,58.7,50.4,29.92,NNW,338,2.3,2.3,74,0.00,CLR,,0.00,WeatherDisplay:10.37,2013-05-30 06:06:00,
2013-05-29 23:11:00,58.5,50.2,29.92,SW,230,1.1,0.0,74,0.00,CLR,,0.00,WeatherDisplay:10.37,2013-05-30 06:11:00,
2013-05-29 23:16:00,58.2,50.0,29.92,SW,229,1.1,1.1,74,0.00,CLR,,0.00,WeatherDisplay:10.37,2013-05-30 06:16:00,
2013-05-29 23:21:00,58.0,50.1,29.93,SW,236,1.1,1.1,75,0.00,CLR,,0.00,WeatherDisplay:10.37,2013-05-30 06:21:00,
2013-05-29 23:26:00,57.9,50.0,29.92,SW,235,1.1,1.1,75,0.00,CLR,,0.00,WeatherDisplay:10.37,2013-05-30 06:26:00,
2013-05-29 23:31:00,57.7,49.8,29.92,SW,235,0.0,0.1,75,0.00,CLR,,0.00,WeatherDisplay:10.37,2013-05-30 06:31:00,
2013-05-29 23:36:00,57.2,49.3,29.93,SW,235,0.0,0.0,75,0.00,CLR,,0.00,WeatherDisplay:10.37,2013-05-30 06:36:00,
2013-05-29 23:41:00,56.3,49.2,29.93,ENE,74,2.3,2.3,77,0.00,CLR,,0.00,WeatherDisplay:10.37,2013-05-30 06:41:00,
2013-05-29 23:46:00,55.9,49.1,29.93,SSE,165,1.1,1.3,78,0.00,CLR,,0.00,WeatherDisplay:10.37,2013-05-30 06:46:00,
2013-05-29 23:51:00,55.7,49.3,29.93,NNE,25,0.0,0.0,79,0.00,CLR,,0.00,WeatherDisplay:10.37,2013-05-30 06:51:00,
2013-05-29 23:56:00,55.7,48.9,29.93,NNE,25,0.0,0.0,78,0.00,CLR,,0.00,WeatherDisplay:10.37,2013-05-30 06:56:00,